No particular awareness of the weather is required.    There are no Weather-warnings


Meteo18 Weather Cam more information Meteo18 Weather Cam


Thunder radar more information blitzortung!


Rain radar more information rain snow radar


Visit our other weather sites:

Template documentation
and downloads

And another site



Weather Underground History page Text

Daily Summary for January 24, 2017 Units:  Metric    English   Both
« Previous Day
Next Day »
Daily Weekly Monthly Yearly Custom
  High: Low: Average:
Temperature: -17.8 °C -20.2 °C -19.3 °C
Dew Point: -17.8 °C -20.7 °C -19.7 °C
Humidity: Humidity % 90 % 95 %
Wind Speed: 0 km/h 0 km/h 7.9 km/h
Wind Gust: 0 km/h - -
Wind:- - SSE
Pressure: 0 hPa 34760.7 hPa -
Precipitation: 0 mm    
Historical Graphs
 
 
Tabular Data for January 24, 2017
Time Temperature Dew Point Pressure Wind Wind Speed Wind Gust Humidity Rainfall Rate (Hourly)
-17.8 °C -17.8 °C 0 hPa Calm     Humidity % 0 mm
00:02 -19.4 °C -20.1 °C 34760.7 hPa NNW 2.6 km/h 25.9 km/h 91 % 0 mm
00:07 -19.4 °C -20.2 °C 34760.7 hPa NE 7.7 km/h 20.8 km/h 91 % 0 mm
00:12 -19.4 °C -20.2 °C 34760.7 hPa NNE 7.7 km/h 20.8 km/h 91 % 0 mm
00:17 -19.5 °C -20.2 °C 34760.7 hPa NNW 10.3 km/h 15.6 km/h 91 % 0 mm
00:22 -19.5 °C -20.2 °C 34760.7 hPa NNW 5.1 km/h 20.8 km/h 91 % 0 mm
00:32 -19.6 °C -20.3 °C 34760.7 hPa NE 7.7 km/h 20.8 km/h 91 % 0 mm
00:37 -19.6 °C -20.3 °C 34760.7 hPa NE 5.1 km/h 20.8 km/h 91 % 0 mm
00:42 -19.6 °C -20.2 °C 34760.7 hPa NNW 12.9 km/h 18.2 km/h 92 % 0 mm
00:47 -19.6 °C -20.2 °C 34760.7 hPa North 10.3 km/h 18.2 km/h 92 % 0 mm
00:57 -19.6 °C -20.3 °C 34774.2 hPa North 10.3 km/h 23.3 km/h 91 % 0 mm
01:02 -19.6 °C -20.3 °C 34774.2 hPa NNW 5.1 km/h 23.3 km/h 91 % 0 mm
01:12 -19.7 °C -20.3 °C 34774.2 hPa North 2.6 km/h 15.6 km/h 92 % 0 mm
01:17 -19.7 °C -20.3 °C 34774.2 hPa NNE 2.6 km/h 25.9 km/h 92 % 0 mm
01:22 -19.8 °C -20.4 °C 34774.2 hPa NNW 15.6 km/h 25.9 km/h 92 % 0 mm
01:32 -19.9 °C -20.6 °C 34760.7 hPa Calm   25.9 km/h 92 % 0 mm
01:37 -20 °C -20.6 °C 34760.7 hPa NE 7.7 km/h 18.2 km/h 93 % 0 mm
01:42 -20.1 °C -20.6 °C 34760.7 hPa North 7.7 km/h 18.2 km/h 93 % 0 mm
01:47 -20.1 °C -20.7 °C 34760.7 hPa NNW 10.3 km/h 18.2 km/h 93 % 0 mm
01:52 -20.1 °C -20.7 °C 34760.7 hPa North 10.3 km/h 15.6 km/h 93 % 0 mm
01:57 -20.1 °C -20.6 °C 34760.7 hPa NE 7.7 km/h 18.2 km/h 94 % 0 mm
02:07 -20.2 °C -20.6 °C 34760.7 hPa NNW 2.6 km/h 18.2 km/h 94 % 0 mm
02:12 -20.2 °C -20.6 °C 34774.2 hPa NNW 5.1 km/h 18.2 km/h 94 % 0 mm
02:17 -20.2 °C -20.7 °C 34760.7 hPa NNW 5.1 km/h 18.2 km/h 94 % 0 mm
02:22 -20.2 °C -20.7 °C 34774.2 hPa ENE 7.7 km/h 18.2 km/h 94 % 0 mm
02:27 -20.2 °C -20.7 °C 34774.2 hPa NNE 5.1 km/h 18.2 km/h 94 % 0 mm
02:32 -20.2 °C -20.7 °C 34774.2 hPa NNE 12.9 km/h 18.2 km/h 94 % 0 mm
02:42 -20.2 °C -20.6 °C 34774.2 hPa North 5.1 km/h 28.5 km/h 95 % 0 mm
02:47 -20.1 °C -20.5 °C 34774.2 hPa North 5.1 km/h 28.5 km/h 95 % 0 mm
02:52 -20.1 °C -20.5 °C 34774.2 hPa North 10.3 km/h 28.5 km/h 95 % 0 mm
02:57 -20.1 °C -20.4 °C 34774.2 hPa NNW 2.6 km/h 20.8 km/h 95 % 0 mm
03:02 -20.1 °C -20.4 °C 34774.2 hPa NW 7.7 km/h 20.8 km/h 95 % 0 mm
03:07 -20.1 °C -20.4 °C 34774.2 hPa NNE 10.3 km/h 23.3 km/h 95 % 0 mm
03:12 -20 °C -20.4 °C 34774.2 hPa North 5.1 km/h 23.3 km/h 95 % 0 mm
03:17 -20 °C -20.4 °C 34774.2 hPa WSW 12.9 km/h 23.3 km/h 95 % 0 mm
03:22 -19.9 °C -20.3 °C 34774.2 hPa NNE 7.7 km/h 25.9 km/h 95 % 0 mm
03:32 -19.9 °C -20.3 °C 34774.2 hPa NNE 15.6 km/h 31.1 km/h 95 % 0 mm
03:37 -19.9 °C -20.3 °C 34774.2 hPa North 15.6 km/h 31.1 km/h 95 % 0 mm
03:42 -19.9 °C -20.3 °C 34774.2 hPa NNE 5.1 km/h 31.1 km/h 95 % 0 mm
03:47 -19.9 °C -20.3 °C 34774.2 hPa North 12.9 km/h 31.1 km/h 95 % 0 mm
03:52 -19.9 °C -20.3 °C 34774.2 hPa North 2.6 km/h 31.1 km/h 95 % 0 mm
03:57 -19.9 °C -20.3 °C 34774.2 hPa North 15.6 km/h 31.1 km/h 95 % 0 mm
04:02 -19.9 °C -20.3 °C 34774.2 hPa NNW 12.9 km/h 31.1 km/h 95 % 0 mm
04:12 -19.9 °C -20.3 °C 34774.2 hPa NNW 15.6 km/h 31.1 km/h 95 % 0 mm
04:17 -19.9 °C -20.3 °C 34774.2 hPa North 5.1 km/h 20.8 km/h 95 % 0 mm
04:22 -19.9 °C -20.3 °C 34774.2 hPa NNW 5.1 km/h 20.8 km/h 95 % 0 mm
04:27 -19.9 °C -20.3 °C 34774.2 hPa NNW 10.3 km/h 18.2 km/h 95 % 0 mm
04:32 -19.9 °C -20.3 °C 34774.2 hPa NE 12.9 km/h 18.2 km/h 95 % 0 mm
04:37 -20 °C -20.4 °C 34774.2 hPa North 7.7 km/h 20.8 km/h 95 % 0 mm
04:42 -20.1 °C -20.4 °C 34774.2 hPa NE 10.3 km/h 20.8 km/h 95 % 0 mm
04:47 -20.1 °C -20.4 °C 34784.4 hPa North 2.6 km/h 20.8 km/h 95 % 0 mm
04:52 -20 °C -20.4 °C 34784.4 hPa NNW 7.7 km/h 18.2 km/h 95 % 0 mm
05:02 -20.1 °C -20.4 °C 34784.4 hPa NE 23.3 km/h 23.3 km/h 95 % 0 mm
05:07 -20.1 °C -20.5 °C 34784.4 hPa NW 7.7 km/h 23.3 km/h 95 % 0 mm
05:12 -20.1 °C -20.4 °C 34784.4 hPa NE 15.6 km/h 23.3 km/h 95 % 0 mm
05:17 -20.1 °C -20.4 °C 34784.4 hPa North 7.7 km/h 23.3 km/h 95 % 0 mm
05:22 -20.1 °C -20.4 °C 34784.4 hPa NW 5.1 km/h 23.3 km/h 95 % 0 mm
05:32 -20.1 °C -20.4 °C 34784.4 hPa NE 5.1 km/h 20.8 km/h 95 % 0 mm
05:37 -20.1 °C -20.5 °C 34784.4 hPa East 12.9 km/h 23.3 km/h 95 % 0 mm
05:42 -20.1 °C -20.4 °C 34784.4 hPa North 12.9 km/h 23.3 km/h 95 % 0 mm
05:47 -20.1 °C -20.5 °C 34784.4 hPa NNE 5.1 km/h 23.3 km/h 95 % 0 mm
05:52 -20.1 °C -20.4 °C 34784.4 hPa NE 5.1 km/h 23.3 km/h 95 % 0 mm
05:57 -20.1 °C -20.5 °C 34784.4 hPa North 18.2 km/h 18.2 km/h 95 % 0 mm
06:02 -20.1 °C -20.5 °C 34784.4 hPa North 12.9 km/h 18.2 km/h 95 % 0 mm
06:07 -20.1 °C -20.5 °C 34797.9 hPa North 10.3 km/h 20.8 km/h 95 % 0 mm
06:12 -20.1 °C -20.5 °C 34797.9 hPa NE 18.2 km/h 20.8 km/h 95 % 0 mm
06:17 -20.1 °C -20.5 °C 34797.9 hPa North 15.6 km/h 23.3 km/h 95 % 0 mm
06:22 -20.1 °C -20.5 °C 34797.9 hPa North 20.8 km/h 23.3 km/h 95 % 0 mm
06:32 -20.2 °C -20.6 °C 34797.9 hPa NNE 5.1 km/h 28.5 km/h 95 % 0 mm
06:37 -20.2 °C -20.6 °C 34797.9 hPa North 15.6 km/h 28.5 km/h 95 % 0 mm
06:42 -20.1 °C -20.5 °C 34797.9 hPa NNE 7.7 km/h 28.5 km/h 95 % 0 mm
06:47 -20.1 °C -20.5 °C 34797.9 hPa NNE 12.9 km/h 28.5 km/h 95 % 0 mm
06:52 -20.1 °C -20.5 °C 34797.9 hPa North 12.9 km/h 20.8 km/h 95 % 0 mm
07:02 -20.1 °C -20.5 °C 34797.9 hPa NW 5.1 km/h 25.9 km/h 95 % 0 mm
07:12 -20.1 °C -20.4 °C 34797.9 hPa Calm   25.9 km/h 95 % 0 mm
07:17 -20.1 °C -20.4 °C 34797.9 hPa NNW 2.6 km/h 20.8 km/h 95 % 0 mm
07:22 -20.1 °C -20.4 °C 34797.9 hPa Calm   20.8 km/h 95 % 0 mm
07:27 -20.1 °C -20.4 °C 34797.9 hPa NNE 12.9 km/h 12.9 km/h 95 % 0 mm
07:32 -20.1 °C -20.4 °C 34808.1 hPa NNE 5.1 km/h 12.9 km/h 95 % 0 mm
07:37 -20.1 °C -20.4 °C 34797.9 hPa NE 5.1 km/h 25.9 km/h 95 % 0 mm
07:42 -20.1 °C -20.4 °C 34797.9 hPa Calm   25.9 km/h 95 % 0 mm
07:47 -20.1 °C -20.4 °C 34797.9 hPa NNE 5.1 km/h 25.9 km/h 95 % 0 mm
07:52 -20.1 °C -20.4 °C 34797.9 hPa North 15.6 km/h 25.9 km/h 95 % 0 mm
07:57 -20.1 °C -20.5 °C 34797.9 hPa NE 12.9 km/h 23.3 km/h 95 % 0 mm
08:02 -20.1 °C -20.5 °C 34797.9 hPa ENE 5.1 km/h 23.3 km/h 95 % 0 mm
08:07 -20.1 °C -20.5 °C 34808.1 hPa NNE 7.7 km/h 23.3 km/h 95 % 0 mm
08:12 -20.1 °C -20.5 °C 34808.1 hPa NNE 7.7 km/h 23.3 km/h 95 % 0 mm
08:17 -20.1 °C -20.5 °C 34808.1 hPa NNE 7.7 km/h 15.6 km/h 95 % 0 mm
08:22 -20.1 °C -20.5 °C 34808.1 hPa North 5.1 km/h 15.6 km/h 95 % 0 mm
08:27 -20.1 °C -20.5 °C 34808.1 hPa Calm   15.6 km/h 95 % 0 mm
08:32 -20.1 °C -20.5 °C 34808.1 hPa North 7.7 km/h 15.6 km/h 95 % 0 mm
08:37 -20.1 °C -20.5 °C 34808.1 hPa NW 7.7 km/h 10.3 km/h 95 % 0 mm
08:42 -20.1 °C -20.5 °C 34818.2 hPa North 2.6 km/h 10.3 km/h 95 % 0 mm
08:47 -20.1 °C -20.5 °C 34818.2 hPa NNW 2.6 km/h 7.7 km/h 95 % 0 mm
08:52 -20.1 °C -20.4 °C 34818.2 hPa NNW 2.6 km/h 7.7 km/h 95 % 0 mm
08:57 -20.1 °C -20.4 °C 34818.2 hPa NNE 7.7 km/h 10.3 km/h 95 % 0 mm
09:02 -20.1 °C -20.4 °C 34818.2 hPa North 2.6 km/h 10.3 km/h 95 % 0 mm
09:07 -20.1 °C -20.4 °C 34818.2 hPa Calm   10.3 km/h 95 % 0 mm
09:12 -20.1 °C -20.4 °C 34818.2 hPa NE 7.7 km/h 10.3 km/h 95 % 0 mm
09:17 -20.1 °C -20.4 °C 34818.2 hPa NNE 5.1 km/h 10.3 km/h 95 % 0 mm
09:22 -20.1 °C -20.4 °C 34818.2 hPa Calm   10.3 km/h 95 % 0 mm
09:27 -20 °C -20.4 °C 34818.2 hPa North 2.6 km/h 10.3 km/h 95 % 0 mm
09:32 -20 °C -20.4 °C 34818.2 hPa North 2.6 km/h 10.3 km/h 95 % 0 mm
09:37 -20.1 °C -20.4 °C 34818.2 hPa Calm   10.3 km/h 95 % 0 mm
09:42 -20.1 °C -20.4 °C 34818.2 hPa NW 5.1 km/h 10.3 km/h 95 % 0 mm
09:52 -20.1 °C -20.5 °C 34831.8 hPa Calm   7.7 km/h 95 % 0 mm
09:57 -20.1 °C -20.5 °C 34831.8 hPa NNW 2.6 km/h 7.7 km/h 95 % 0 mm
10:02 -20.1 °C -20.4 °C 34831.8 hPa NE 5.1 km/h 7.7 km/h 95 % 0 mm
10:07 -20.1 °C -20.4 °C 34831.8 hPa Calm   10.3 km/h 95 % 0 mm
10:12 -20 °C -20.4 °C 34831.8 hPa NNE 2.6 km/h 10.3 km/h 95 % 0 mm
10:17 -20 °C -20.4 °C 34831.8 hPa NNE 5.1 km/h 10.3 km/h 95 % 0 mm
10:22 -20.1 °C -20.4 °C 34831.8 hPa Calm   10.3 km/h 95 % 0 mm
10:27 -19.9 °C -20.3 °C 34831.8 hPa Calm   7.7 km/h 95 % 0 mm
10:32 -19.9 °C -20.3 °C 34831.8 hPa Calm   7.7 km/h 95 % 0 mm
10:37 -19.9 °C -20.3 °C 34831.8 hPa Calm   2.6 km/h 95 % 0 mm
10:42 -19.8 °C -20.2 °C 34831.8 hPa Calm   2.6 km/h 95 % 0 mm
10:47 -19.8 °C -20.2 °C 34831.8 hPa Calm     95 % 0 mm
10:52 -19.8 °C -20.2 °C 34831.8 hPa Calm     95 % 0 mm
10:57 -19.8 °C -20.2 °C 34831.8 hPa Calm   5.1 km/h 95 % 0 mm
11:02 -19.7 °C -20.1 °C 34831.8 hPa South 5.1 km/h 5.1 km/h 95 % 0 mm
11:07 -19.7 °C -20.1 °C 34831.8 hPa Calm   5.1 km/h 95 % 0 mm
11:17 -19.6 °C -20 °C 34831.8 hPa SW 2.6 km/h 5.1 km/h 95 % 0 mm
11:22 -19.6 °C -20 °C 34831.8 hPa SW 2.6 km/h 5.1 km/h 95 % 0 mm
11:27 -19.6 °C -19.9 °C 34831.8 hPa Calm   5.1 km/h 95 % 0 mm
11:32 -19.5 °C -19.8 °C 34831.8 hPa Calm   5.1 km/h 96 % 0 mm
11:37 -19.5 °C -19.9 °C 34831.8 hPa SW 2.6 km/h 5.1 km/h 95 % 0 mm
11:42 -19.4 °C -19.7 °C 34831.8 hPa Calm   5.1 km/h 96 % 0 mm
11:47 -19.3 °C -19.6 °C 34831.8 hPa Calm   5.1 km/h 96 % 0 mm
11:52 -19.3 °C -19.6 °C 34831.8 hPa Calm   5.1 km/h 96 % 0 mm
11:57 -19.2 °C -19.5 °C 34831.8 hPa Calm   5.1 km/h 96 % 0 mm
12:02 -19.2 °C -19.5 °C 34841.9 hPa Calm   2.6 km/h 96 % 0 mm
12:07 -19.2 °C -19.5 °C 34841.9 hPa Calm   2.6 km/h 96 % 0 mm
12:12 -19.2 °C -19.5 °C 34831.8 hPa Calm   2.6 km/h 96 % 0 mm
12:17 -19.2 °C -19.5 °C 34841.9 hPa Calm   2.6 km/h 96 % 0 mm
12:22 -19.2 °C -19.4 °C 34841.9 hPa Calm   2.6 km/h 96 % 0 mm
12:27 -19.1 °C -19.4 °C 34831.8 hPa Calm   2.6 km/h 96 % 0 mm
12:32 -19.1 °C -19.4 °C 34831.8 hPa Calm   2.6 km/h 96 % 0 mm
12:37 -19 °C -19.3 °C 34831.8 hPa Calm   2.6 km/h 96 % 0 mm
12:42 -18.9 °C -19.3 °C 34831.8 hPa Calm     96 % 0 mm
12:47 -18.9 °C -19.2 °C 34831.8 hPa Calm     96 % 0 mm
12:57 -18.8 °C -19.1 °C 34831.8 hPa Calm     96 % 0 mm
13:02 -18.8 °C -19.1 °C 34831.8 hPa Calm     96 % 0 mm
13:07 -18.8 °C -19.1 °C 34831.8 hPa Calm     96 % 0 mm
13:12 -18.7 °C -19.1 °C 34831.8 hPa Calm     96 % 0 mm
13:17 -18.7 °C -19.1 °C 34831.8 hPa Calm   5.1 km/h 96 % 0 mm
13:22 -18.7 °C -19 °C 34831.8 hPa NNE 5.1 km/h 5.1 km/h 96 % 0 mm
13:27 -18.7 °C -19 °C 34818.2 hPa Calm   7.7 km/h 96 % 0 mm
13:32 -18.7 °C -19 °C 34818.2 hPa Calm   7.7 km/h 96 % 0 mm
13:37 -18.6 °C -18.9 °C 34818.2 hPa Calm   7.7 km/h 96 % 0 mm
13:42 -18.6 °C -18.9 °C 34818.2 hPa NE 2.6 km/h 7.7 km/h 96 % 0 mm
13:47 -18.5 °C -18.8 °C 34818.2 hPa Calm   7.7 km/h 96 % 0 mm
13:52 -18.5 °C -18.8 °C 34818.2 hPa Calm   7.7 km/h 96 % 0 mm
13:57 -18.5 °C -18.8 °C 34818.2 hPa Calm   10.3 km/h 96 % 0 mm
14:02 -18.4 °C -18.6 °C 34808.1 hPa Calm   10.3 km/h 97 % 0 mm
14:07 -18.4 °C -18.6 °C 34808.1 hPa Calm   2.6 km/h 97 % 0 mm
14:12 -18.3 °C -18.7 °C 34808.1 hPa Calm   2.6 km/h 96 % 0 mm
14:17 -18.3 °C -18.5 °C 34808.1 hPa East 2.6 km/h 2.6 km/h 97 % 0 mm
14:22 -18.2 °C -18.4 °C 34797.9 hPa Calm   2.6 km/h 97 % 0 mm
14:27 -18.2 °C -18.4 °C 34797.9 hPa Calm   2.6 km/h 97 % 0 mm
14:32 -18.2 °C -18.6 °C 34808.1 hPa NNW 5.1 km/h 5.1 km/h 96 % 0 mm
14:37 -18.3 °C -18.6 °C 34808.1 hPa North 7.7 km/h 15.6 km/h 96 % 0 mm
14:42 -18.3 °C -18.6 °C 34808.1 hPa NE 7.7 km/h 15.6 km/h 96 % 0 mm
14:47 -18.4 °C -18.7 °C 34808.1 hPa NE 12.9 km/h 15.6 km/h 96 % 0 mm
14:52 -18.4 °C -18.7 °C 34808.1 hPa NE 7.7 km/h 15.6 km/h 96 % 0 mm
14:57 -18.4 °C -18.8 °C 34808.1 hPa NNE 5.1 km/h 18.2 km/h 96 % 0 mm
15:02 -18.4 °C -18.8 °C 34818.2 hPa NNW 10.3 km/h 18.2 km/h 96 % 0 mm
15:07 -18.5 °C -18.8 °C 34818.2 hPa NNE 12.9 km/h 23.3 km/h 96 % 0 mm
15:12 -18.6 °C -18.9 °C 34818.2 hPa NNE 10.3 km/h 23.3 km/h 96 % 0 mm
15:17 -18.6 °C -18.9 °C 34818.2 hPa NNE 12.9 km/h 25.9 km/h 96 % 0 mm
15:22 -18.6 °C -18.9 °C 34818.2 hPa North 18.2 km/h 25.9 km/h 96 % 0 mm
15:27 -18.6 °C -18.9 °C 34818.2 hPa NW 2.6 km/h 25.9 km/h 96 % 0 mm
15:32 -18.5 °C -18.8 °C 34818.2 hPa ENE 5.1 km/h 25.9 km/h 96 % 0 mm
15:37 -18.6 °C -18.9 °C 34818.2 hPa NE 7.7 km/h 20.8 km/h 96 % 0 mm
15:42 -18.6 °C -18.9 °C 34818.2 hPa NNE 12.9 km/h 20.8 km/h 96 % 0 mm
15:47 -18.7 °C -19 °C 34808.1 hPa NE 12.9 km/h 25.9 km/h 96 % 0 mm
15:52 -18.7 °C -19 °C 34818.2 hPa NE 12.9 km/h 25.9 km/h 96 % 0 mm
15:57 -18.7 °C -19 °C 34808.1 hPa NNE 5.1 km/h 25.9 km/h 96 % 0 mm
16:02 -18.7 °C -19 °C 34808.1 hPa NNE 7.7 km/h 28.5 km/h 96 % 0 mm
16:07 -18.7 °C -19 °C 34808.1 hPa NNE 10.3 km/h 28.5 km/h 96 % 0 mm
16:12 -18.7 °C -19 °C 34818.2 hPa NNE 12.9 km/h 28.5 km/h 96 % 0 mm
16:17 -18.7 °C -19.1 °C 34818.2 hPa North 10.3 km/h 23.3 km/h 96 % 0 mm
16:22 -18.7 °C -19.1 °C 34818.2 hPa ENE 12.9 km/h 25.9 km/h 96 % 0 mm
16:32 -18.7 °C -19.1 °C 34818.2 hPa NE 20.8 km/h 25.9 km/h 96 % 0 mm
16:37 -18.7 °C -19.1 °C 34818.2 hPa NE 7.7 km/h 20.8 km/h 96 % 0 mm
16:42 -18.8 °C -19.1 °C 34818.2 hPa NE 12.9 km/h 20.8 km/h 96 % 0 mm
16:52 -18.8 °C -19.1 °C 34818.2 hPa NW 2.6 km/h 23.3 km/h 96 % 0 mm
16:57 -18.8 °C -19.1 °C 34818.2 hPa Calm   23.3 km/h 96 % 0 mm
17:02 -18.8 °C -19.1 °C 34818.2 hPa Calm   20.8 km/h 96 % 0 mm
17:07 -18.8 °C -19.1 °C 34818.2 hPa NE 2.6 km/h 15.6 km/h 96 % 0 mm
17:12 -18.8 °C -19.1 °C 34818.2 hPa North 10.3 km/h 15.6 km/h 96 % 0 mm
17:17 -18.8 °C -19.1 °C 34818.2 hPa North 2.6 km/h 12.9 km/h 96 % 0 mm
17:22 -18.8 °C -19.1 °C 34818.2 hPa NNW 5.1 km/h 18.2 km/h 96 % 0 mm
17:27 -18.8 °C -19.1 °C 34818.2 hPa NNW 5.1 km/h 18.2 km/h 96 % 0 mm
17:32 -18.8 °C -19.1 °C 34818.2 hPa NNE 7.7 km/h 25.9 km/h 96 % 0 mm
17:37 -18.8 °C -19.1 °C 34818.2 hPa NNW 10.3 km/h 25.9 km/h 96 % 0 mm
17:42 -18.8 °C -19.1 °C 34818.2 hPa North 7.7 km/h 25.9 km/h 96 % 0 mm
17:47 -18.8 °C -19.1 °C 34831.8 hPa North 12.9 km/h 23.3 km/h 96 % 0 mm
17:57 -18.8 °C -19.1 °C 34831.8 hPa NW 2.6 km/h 23.3 km/h 96 % 0 mm
18:02 -18.8 °C -19.1 °C 34831.8 hPa North 12.9 km/h 23.3 km/h 96 % 0 mm
18:12 -18.8 °C -19.1 °C 34831.8 hPa NNW 2.6 km/h 23.3 km/h 96 % 0 mm
18:17 -18.8 °C -19.1 °C 34831.8 hPa NW 5.1 km/h 20.8 km/h 96 % 0 mm
18:22 -18.8 °C -19.1 °C 34818.2 hPa NNW 10.3 km/h 23.3 km/h 96 % 0 mm
18:27 -18.7 °C -19.1 °C 34818.2 hPa NNW 2.6 km/h 23.3 km/h 96 % 0 mm
18:32 -18.7 °C -19.1 °C 34818.2 hPa NNE 2.6 km/h 23.3 km/h 96 % 0 mm
18:37 -18.7 °C -19.1 °C 34818.2 hPa NNW 5.1 km/h 23.3 km/h 96 % 0 mm
18:42 -18.7 °C -19.1 °C 34818.2 hPa North 18.2 km/h 18.2 km/h 96 % 0 mm
18:47 -18.7 °C -19.1 °C 34818.2 hPa NE 5.1 km/h 15.6 km/h 96 % 0 mm
18:57 -18.7 °C -19.1 °C 34818.2 hPa ENE 12.9 km/h 23.3 km/h 96 % 0 mm
19:02 -18.7 °C -19.1 °C 34818.2 hPa NNE 15.6 km/h 25.9 km/h 96 % 0 mm
19:07 -18.7 °C -19.1 °C 34818.2 hPa NNE 33.6 km/h 38.8 km/h 96 % 0 mm
19:17 -18.7 °C -19.1 °C 34831.8 hPa WNW 10.3 km/h 38.8 km/h 96 % 0 mm
19:22 -18.7 °C -19.1 °C 34831.8 hPa NNE 20.8 km/h 33.6 km/h 96 % 0 mm
19:27 -18.7 °C -19 °C 34831.8 hPa NNW 10.3 km/h 33.6 km/h 96 % 0 mm
19:32 -18.7 °C -19 °C 34831.8 hPa NNW 15.6 km/h 31.1 km/h 96 % 0 mm
19:37 -18.7 °C -19 °C 34831.8 hPa Calm   23.3 km/h 96 % 0 mm
19:42 -18.7 °C -19 °C 34818.2 hPa NNE 2.6 km/h 20.8 km/h 96 % 0 mm
19:52 -18.7 °C -19 °C 34831.8 hPa NNW 10.3 km/h 23.3 km/h 96 % 0 mm
19:57 -18.7 °C -19 °C 34831.8 hPa NNE 12.9 km/h 23.3 km/h 96 % 0 mm
20:02 -18.7 °C -19 °C 34831.8 hPa NNW 10.3 km/h 20.8 km/h 96 % 0 mm
20:07 -18.7 °C -19 °C 34831.8 hPa NNW 12.9 km/h 20.8 km/h 96 % 0 mm
20:12 -18.7 °C -19 °C 34831.8 hPa North 15.6 km/h 25.9 km/h 96 % 0 mm
20:17 -18.7 °C -19.1 °C 34831.8 hPa North 10.3 km/h 25.9 km/h 95 % 0 mm
20:22 -18.7 °C -19.1 °C 34831.8 hPa NE 10.3 km/h 28.5 km/h 95 % 0 mm
20:27 -18.7 °C -19.1 °C 34831.8 hPa ENE 12.9 km/h 28.5 km/h 95 % 0 mm
20:32 -18.6 °C -19 °C 34831.8 hPa North 12.9 km/h 28.5 km/h 95 % 0 mm
20:37 -18.6 °C -19 °C 34831.8 hPa North 12.9 km/h 31.1 km/h 95 % 0 mm
20:42 -18.6 °C -19 °C 34831.8 hPa NE 10.3 km/h 31.1 km/h 95 % 0 mm
20:47 -18.6 °C -19 °C 34831.8 hPa NW 15.6 km/h 28.5 km/h 95 % 0 mm
20:52 -18.6 °C -19 °C 34818.2 hPa Calm   23.3 km/h 95 % 0 mm
20:57 -18.6 °C -19 °C 34818.2 hPa Calm   23.3 km/h 95 % 0 mm
21:02 -18.6 °C -19 °C 34818.2 hPa NNW 10.3 km/h 23.3 km/h 95 % 0 mm
21:07 -18.6 °C -19 °C 34818.2 hPa NNW 5.1 km/h 12.9 km/h 95 % 0 mm
21:12 -18.6 °C -18.9 °C 34818.2 hPa NNE 2.6 km/h 15.6 km/h 95 % 0 mm
21:22 -18.6 °C -18.9 °C 34818.2 hPa Calm   12.9 km/h 95 % 0 mm
21:27 -18.6 °C -18.9 °C 34818.2 hPa Calm   12.9 km/h 95 % 0 mm
21:32 -18.6 °C -18.9 °C 34818.2 hPa NE 7.7 km/h 12.9 km/h 95 % 0 mm
21:37 -18.6 °C -18.9 °C 34818.2 hPa North 7.7 km/h 12.9 km/h 95 % 0 mm
21:42 -18.5 °C -18.9 °C 34818.2 hPa NE 10.3 km/h 12.9 km/h 95 % 0 mm
21:47 -18.5 °C -18.9 °C 34818.2 hPa NNE 10.3 km/h 15.6 km/h 94 % 0 mm
21:52 -18.4 °C -18.9 °C 34818.2 hPa NE 7.7 km/h 25.9 km/h 94 % 0 mm
21:57 -18.4 °C -18.9 °C 34818.2 hPa North 7.7 km/h 28.5 km/h 94 % 0 mm
22:02 -18.4 °C -18.9 °C 34818.2 hPa NNE 5.1 km/h 28.5 km/h 94 % 0 mm
22:07 -18.4 °C -18.8 °C 34818.2 hPa North 10.3 km/h 28.5 km/h 94 % 0 mm
22:12 -18.4 °C -18.8 °C 34818.2 hPa NNE 15.6 km/h 28.5 km/h 94 % 0 mm
22:17 -18.4 °C -18.9 °C 34818.2 hPa NNE 12.9 km/h 23.3 km/h 93 % 0 mm
22:27 -18.4 °C -18.9 °C 34818.2 hPa NE 18.2 km/h 25.9 km/h 93 % 0 mm
22:32 -18.4 °C -18.9 °C 34818.2 hPa NW 18.2 km/h 25.9 km/h 93 % 0 mm
22:37 -18.4 °C -19 °C 34818.2 hPa NNE 15.6 km/h 28.5 km/h 92 % 0 mm
22:42 -18.4 °C -19 °C 34808.1 hPa NNE 18.2 km/h 33.6 km/h 92 % 0 mm
22:47 -18.4 °C -19 °C 34808.1 hPa NNE 20.8 km/h 33.6 km/h 92 % 0 mm
22:52 -18.4 °C -19.1 °C 34808.1 hPa NE 28.5 km/h 36.2 km/h 91 % 0 mm
22:57 -18.4 °C -19.1 °C 34808.1 hPa NE 28.5 km/h 38.8 km/h 91 % 0 mm
23:02 -18.4 °C -19.1 °C 34808.1 hPa NE 25.9 km/h 38.8 km/h 91 % 0 mm
23:07 -18.4 °C -19.1 °C 34808.1 hPa NE 38.8 km/h 38.8 km/h 91 % 0 mm
23:12 -18.4 °C -19.1 °C 34808.1 hPa NNE 41.4 km/h 41.4 km/h 92 % 0 mm
23:17 -18.4 °C -19.2 °C 34808.1 hPa NNE 23.3 km/h 38.8 km/h 91 % 0 mm
23:22 -18.4 °C -19.2 °C 34808.1 hPa NNE 31.1 km/h 44.1 km/h 91 % 0 mm
23:27 -18.5 °C -19.2 °C 34808.1 hPa NE 15.6 km/h 44.1 km/h 91 % 0 mm
23:32 -18.5 °C -19.2 °C 34808.1 hPa NE 15.6 km/h 41.4 km/h 91 % 0 mm
23:37 -18.5 °C -19.2 °C 34808.1 hPa NE 15.6 km/h 31.1 km/h 91 % 0 mm
23:42 -18.5 °C -19.2 °C 34808.1 hPa NE 23.3 km/h 36.2 km/h 91 % 0 mm
23:47 -18.5 °C -19.2 °C 34808.1 hPa NE 23.3 km/h 36.2 km/h 91 % 0 mm
23:52 -18.6 °C -19.3 °C 34808.1 hPa NE 18.2 km/h 36.2 km/h 90 % 0 mm
23:57 -18.6 °C -19.3 °C 34808.1 hPa NE 12.9 km/h 38.8 km/h 90 % 0 mm
Meteo18
Compliments of Weather Underground - 4 mb

Script developed by  Jim McMurry - jmcmurry@mwt.net Adapted for the template by  Wim van der Kuil - Leuven-Template.eu

You find our weather info also at:

European Weather Network

Weather Underground

Equipment we use:

Weather-station
Davis Vue

Weather-program
Meteobridge

Weather-server
Raspberry PI 2 B+

Provider
1 and 1

Davis Vue

Meteobridge

Raspberry PI 2 B+

1 and 1